Location: Zagreb
(45.8000°N, 16.0000°E)
Time: 03:32:40
(UTC+02:00)

Courier 1B Rocket - Visible Passes

Search period start: 08 August 2022 00:00
Search period end: 18 August 2022 00:00
Orbit: 920 x 1202 km, 28.2° (Epoch: 07 August)

Date Brightness Start Highest point End Pass type
(mag) Time Alt. Az. Time Alt. Az. Time Alt. Az.
08 Aug 6.8 21:30:11 10° SW 21:34:11 16° S 21:37:22 12° SSE visible
09 Aug 7.0 22:23:29 10° SW 22:25:42 12° SSW 22:26:08 12° SSW visible
10 Aug 7.0 21:21:49 10° SW 21:24:58 14° SSW 21:28:11 10° SSE visible
12 Aug 7.1 21:14:39 10° SSW 21:15:44 10° SSW 21:16:49 10° S visible
